{"data":{"norad_id":67119,"intl_designator":"2025-299T","name":"STARLINK-36179","alt_names":[],"object_type":"PAYLOAD","status":"ACTIVE","operator":null,"country":"US","launch_date":"2025-12-15","launch_site_code":"AFETR","launch_vehicle":null,"mission":null,"orbit_class":"UNKNOWN","rcs_meters":null,"size_class":null,"mass_kg":null,"dimensions":null,"purposes":["comms"],"wikipedia_slug":null,"has_3d_model":false,"image_url":null,"decayed_at":null,"tle_current":{"epoch":"2026-05-25T04:03:11.676096Z","epoch_age_seconds":63947,"freshness":"FRESH","line1":"1 67119U 25299T   26145.16888514  .00015280  00000+0  56346-3 0  9992","line2":"2 67119  43.0002  96.9955 0000408 266.5176  93.5629 15.27590262 24811","mean_motion":15.27590262,"eccentricity":4.08e-5,"inclination_deg":43.0002,"raan_deg":96.9955,"arg_perigee_deg":266.5176,"mean_anomaly_deg":93.5629,"bstar":0.00056346,"rev_number":2481,"period_min":94.266115451317,"perigee_km":482.73843295292,"apogee_km":483.29830323096,"semimajor_km":6861.1553680919,"source":"CELESTRAK","updated_at":"2026-05-25T13:38:21.476414Z"}}}